• In Sweden
  • List of Countries
  • For 7 days
  • Water Temperature
  • Satellite Maps
  • Weather Map
  • Weather Widgets
  • user-avatar
    Login

    Hourly Weather Frankfurt am Mein

    Today, 24 September, Monday

    Time Temperature Precipitation Wind Pressure Humidity
    00:00 +5°C° 0 mm 4 mps 726 mmHg 88%
    01:00 +6°C° 0 mm 2 mps 727 mmHg 89%
    02:00 +5°C° 0 mm 2 mps 728 mmHg 90%
    03:00 +5°C° 0 mm 2 mps 729 mmHg 91%
    04:00 +5°C° 0 mm 2 mps 729 mmHg 91%
    05:00 +4°C° 0 mm 3 mps 730 mmHg 91%
    06:00 +4°C° 0 mm 3 mps 730 mmHg 90%
    07:00 +5°C° 0 mm 2 mps 731 mmHg 89%
    08:00 +7°C° 0 mm 3 mps 732 mmHg 81%
    09:00 +7°C° 0 mm 4 mps 732 mmHg 73%
    10:00 +10°C° 0 mm 4 mps 733 mmHg 65%
    11:00 +11°C° 0 mm 4 mps 733 mmHg 60%
    12:00 +12°C° 0 mm 4 mps 733 mmHg 54%
    13:00 +12°C° 0 mm 5 mps 733 mmHg 49%
    14:00 +12°C° 0 mm 5 mps 733 mmHg 50%
    15:00 +12°C° 0 mm 4 mps 733 mmHg 50%
    16:00 +12°C° 0 mm 4 mps 733 mmHg 51%
    17:00 +11°C° 0 mm 4 mps 733 mmHg 58%
    18:00 +9°C° 0 mm 3 mps 734 mmHg 65%
    19:00 +8°C° 0 mm 2 mps 734 mmHg 71%
    20:00 +7°C° 0 mm 2 mps 734 mmHg 74%
    21:00 +6°C° 0 mm 2 mps 735 mmHg 77%
    22:00 +7°C° 0 mm 1 mps 735 mmHg 80%
    23:00 +6°C° 0 mm 1 mps 735 mmHg 81%

    Tomorrow, 25 September, Tuesday

    Time Temperature Precipitation Wind Pressure Humidity
    00:00 +6°C° 0 mm 1 mps 736 mmHg 83%
    01:00 +5°C° 0 mm 1 mps 736 mmHg 84%
    02:00 +5°C° 0 mm 1 mps 736 mmHg 85%
    03:00 +5°C° 0 mm 1 mps 736 mmHg 86%
    04:00 +4°C° 0 mm 1 mps 736 mmHg 87%
    05:00 +4°C° 0 mm 1 mps 736 mmHg 87%
    06:00 +4°C° 0 mm 1 mps 736 mmHg 86%
    07:00 +4°C° 0 mm 1 mps 737 mmHg 86%
    08:00 +7°C° 0 mm 1 mps 737 mmHg 76%
    09:00 +8°C° 0 mm 2 mps 737 mmHg 66%
    10:00 +10°C° 0 mm 2 mps 738 mmHg 56%
    11:00 +12°C° 0 mm 2 mps 738 mmHg 51%
    12:00 +12°C° 0 mm 2 mps 738 mmHg 47%
    13:00 +13°C° 0 mm 2 mps 738 mmHg 42%
    14:00 +13°C° 0 mm 2 mps 737 mmHg 42%
    15:00 +13°C° 0 mm 2 mps 737 mmHg 42%
    16:00 +14°C° 0 mm 2 mps 737 mmHg 42%
    17:00 +12°C° 0 mm 2 mps 736 mmHg 48%
    18:00 +9°C° 0 mm 2 mps 736 mmHg 54%
    19:00 +8°C° 0 mm 1 mps 736 mmHg 60%
    20:00 +8°C° 0 mm 1 mps 736 mmHg 62%
    21:00 +7°C° 0 mm 1 mps 736 mmHg 65%
    22:00 +7°C° 0 mm 1 mps 736 mmHg 67%
    23:00 +6°C° 0 mm 1 mps 736 mmHg 68%

    Day after tomorrow, 26 September, Wednesday

    Time Temperature Precipitation Wind Pressure Humidity
    00:00 +6°C° 0 mm 1 mps 736 mmHg 70%
    01:00 +5°C° 0 mm 1 mps 736 mmHg 72%
    02:00 +5°C° 0 mm 1 mps 736 mmHg 72%
    03:00 +5°C° 0 mm 1 mps 735 mmHg 73%
    04:00 +5°C° 0 mm 1 mps 735 mmHg 73%
    05:00 +5°C° 0 mm 1 mps 735 mmHg 72%
    06:00 +5°C° 0 mm 1 mps 735 mmHg 72%
    07:00 +5°C° 0 mm 1 mps 735 mmHg 71%
    08:00 +7°C° 0 mm 1 mps 735 mmHg 63%
    09:00 +9°C° 0 mm 1 mps 736 mmHg 55%
    10:00 +10°C° 0 mm 2 mps 736 mmHg 47%
    11:00 +13°C° 0 mm 2 mps 736 mmHg 43%
    12:00 +14°C° 0 mm 2 mps 735 mmHg 39%
    13:00 +16°C° 0 mm 1 mps 735 mmHg 35%
    14:00 +16°C° 0 mm 1 mps 735 mmHg 35%
    15:00 +18°C° 0 mm 1 mps 734 mmHg 35%
    16:00 +18°C° 0 mm 1 mps 734 mmHg 35%
    17:00 +14°C° 0 mm 0 mps 734 mmHg 40%
    18:00 +12°C° 0 mm 0 mps 734 mmHg 45%
    19:00 +10°C° 0 mm 0 mps 733 mmHg 50%
    20:00 +9°C° 0 mm 0 mps 734 mmHg 51%
    21:00 +9°C° 0 mm 0 mps 734 mmHg 52%
    22:00 +8°C° 0 mm 0 mps 734 mmHg 53%
    23:00 +8°C° 0 mm 0 mps 734 mmHg 53%

    27 September, Thursday

    Time Temperature Precipitation Wind Pressure Humidity
    00:00 +8°C° 0 mm 0 mps 734 mmHg 54%
    01:00 +7°C° 0 mm 0 mps 734 mmHg 55%
    02:00 +7°C° 0 mm 0 mps 733 mmHg 56%
    03:00 +7°C° 0 mm 0 mps 733 mmHg 57%
    04:00 +6°C° 0 mm 0 mps 733 mmHg 58%
    05:00 +6°C° 0 mm 0 mps 733 mmHg 59%
    06:00 +6°C° 0 mm 0 mps 733 mmHg 59%
    07:00 +6°C° 0 mm 0 mps 733 mmHg 60%
    08:00 +9°C° 0 mm 0 mps 733 mmHg 54%
    09:00 +11°C° 0 mm 0 mps 733 mmHg 48%
    10:00 +15°C° 0 mm 1 mps 733 mmHg 42%
    11:00 +16°C° 0 mm 1 mps 733 mmHg 39%
    12:00 +19°C° 0 mm 1 mps 732 mmHg 36%
    13:00 +20°C° 0 mm 1 mps 732 mmHg 33%
    14:00 +20°C° 0 mm 1 mps 732 mmHg 34%
    15:00 +21°C° 0 mm 1 mps 731 mmHg 36%
    16:00 +21°C° 0 mm 1 mps 730 mmHg 37%
    17:00 +18°C° 0 mm 1 mps 730 mmHg 42%
    18:00 +15°C° 0 mm 1 mps 730 mmHg 47%
    19:00 +12°C° 0 mm 0 mps 729 mmHg 53%
    20:00 +11°C° 0 mm 0 mps 729 mmHg 55%
    21:00 +11°C° 0 mm 0 mps 729 mmHg 56%
    22:00 +10°C° 0 mm 0 mps 729 mmHg 58%
    23:00 +10°C° 0 mm 0 mps 728 mmHg 61%

    28 September, Friday

    Time Temperature Precipitation Wind Pressure Humidity
    00:00 +9°C° 0 mm 0 mps 728 mmHg 63%
    01:00 +9°C° 0 mm 0 mps 728 mmHg 65%
    02:00 +9°C° 0 mm 0 mps 727 mmHg 67%
    03:00 +8°C° 0 mm 0 mps 727 mmHg 69%
    04:00 +8°C° 0 mm 0 mps 727 mmHg 71%
    05:00 +8°C° 0 mm 0 mps 727 mmHg 72%
    06:00 +8°C° 0 mm 0 mps 726 mmHg 73%
    07:00 +8°C° 0 mm 0 mps 726 mmHg 74%
    08:00 +10°C° 0 mm 0 mps 727 mmHg 67%
    09:00 +13°C° 0 mm 0 mps 727 mmHg 60%
    10:00 +15°C° 0 mm 0 mps 727 mmHg 53%
    11:00 +17°C° 0 mm 0 mps 727 mmHg 49%
    12:00 +18°C° 0 mm 0 mps 727 mmHg 45%
    13:00 +20°C° 0 mm 0 mps 727 mmHg 41%
    14:00 +19°C° 0 mm 0 mps 726 mmHg 42%
    15:00 +21°C° 0 mm 1 mps 726 mmHg 42%
    16:00 +21°C° 0 mm 1 mps 725 mmHg 43%
    17:00 +19°C° 0 mm 1 mps 725 mmHg 50%
    18:00 +16°C° 0 mm 1 mps 725 mmHg 58%
    19:00 +14°C° 0 mm 2 mps 725 mmHg 65%
    20:00 +13°C° 0 mm 2 mps 726 mmHg 70%
    21:00 +12°C° 0 mm 2 mps 726 mmHg 75%
    22:00 +10°C° 0 mm 3 mps 727 mmHg 80%
    23:00 +10°C° 0 mm 3 mps 727 mmHg 83%

    29 September, Saturday

    Time Temperature Precipitation Wind Pressure Humidity
    00:00 +9°C° 0 mm 3 mps 727 mmHg 86%
    01:00 +9°C° 0 mm 3 mps 727 mmHg 89%
    02:00 +8°C° 0 mm 3 mps 727 mmHg 90%
    03:00 +8°C° 0 mm 2 mps 727 mmHg 91%
    04:00 +7°C° 0 mm 2 mps 727 mmHg 92%
    05:00 +7°C° 0 mm 2 mps 727 mmHg 90%
    06:00 +7°C° 0 mm 2 mps 728 mmHg 89%
    07:00 +7°C° 0 mm 2 mps 728 mmHg 88%
    08:00 +8°C° 0 mm 3 mps 728 mmHg 77%
    09:00 +10°C° 0 mm 3 mps 729 mmHg 67%
    10:00 +11°C° 0 mm 4 mps 729 mmHg 57%
    11:00 +12°C° 0 mm 4 mps 729 mmHg 53%
    12:00 +13°C° 0 mm 4 mps 728 mmHg 49%
    13:00 +14°C° 0 mm 4 mps 728 mmHg 45%
    14:00 +14°C° 0 mm 3 mps 728 mmHg 45%
    15:00 +14°C° 0 mm 3 mps 728 mmHg 46%
    16:00 +14°C° 0 mm 3 mps 727 mmHg 46%
    17:00 +13°C° 0 mm 3 mps 727 mmHg 52%
    18:00 +11°C° 0 mm 3 mps 727 mmHg 58%
    19:00 +9°C° 0 mm 3 mps 727 mmHg 63%
    20:00 +9°C° 0 mm 3 mps 727 mmHg 64%
    21:00 +8°C° 0 mm 3 mps 727 mmHg 66%
    22:00 +8°C° 0 mm 3 mps 727 mmHg 67%
    23:00 +7°C° 0 mm 2 mps 727 mmHg 69%
    Show more